Franklin, NC

2:42 AM EST on February 10, 2016 (GMT -0500)
Franklin

Weather History for K1A5 - October, 2012

Change the Weather History Date:

Monday, October 8, 2012

  Actual Average (KTOC) Record (KTOC)
Temperature  
Mean Temperature 48 °F -  
Max Temperature 51 °F 73 °F 85 °F (2014)
Min Temperature 46 °F 52 °F 57 °F (2015)
Degree Days  
Heating Degree Days 16    
Moisture  
Dew Point 47 °F    
Average Humidity 96    
Maximum Humidity 100    
Minimum Humidity 82    
Precipitation  
Precipitation 0.01 in - - ()
Sea Level Pressure  
Sea Level Pressure 30.12 in    
Wind  
Wind Speed 0 mph (North)    
Max Wind Speed 0 mph    
Max Gust Speed -    
Visibility 8 miles    
Events Rain    
Averages and records for this station are not official NWS values.
T = Trace of Precipitation, MM = Missing Value Source: NWS Daily Summary

Daily Weather History Graph

Daily Weather History Graph

Search for Another Location

Airport or City:

Trip Planner

Search our weather history database for the weather conditions in past years. The results will help you decide how hot, cold, wet, or windy it might be!

Date:

Astronomy

Oct. 08, 2012 Rise Set
Actual Time 7:34 AM EDT 7:07 PM EDT
Civil Twilight 7:08 AM EDT 7:32 PM EDT
Nautical Twilight 6:39 AM EDT 8:01 PM EDT
Astronomical Twilight 6:10 AM EDT 8:31 PM EDT
Moon 12:27 AM EDT (10/8) 2:42 PM EDT (10/8)
Length of Visible Light 12h 23m
Length of Day
11h 32m
Waning Gibbous, 46% of the Moon is Illuminated
Oct 8
Waning Gibbous
Oct 15
New
Oct 21
First Quarter
Oct 29
Full
Nov 6
Last Quarter

Hourly Weather History & Observations

Time (EDT) Temp. Dew Point Humidity Pressure Visibility Wind Dir Wind Speed Gust Speed Precip Events Conditions
12:15 AM 46.4 °F 44.6 °F 93% 30.12 in 10.0 mi Calm Calm - N/A   Overcast
12:35 AM 46.4 °F 44.6 °F 93% 30.11 in 10.0 mi Calm Calm - N/A   Overcast
12:55 AM 46.4 °F 44.6 °F 93% 30.11 in 10.0 mi Calm Calm - N/A   Overcast
1:15 AM 46.4 °F 42.8 °F 87% 30.11 in 10.0 mi Calm Calm - N/A   Overcast
1:35 AM 46.4 °F 44.6 °F 93% 30.11 in 10.0 mi Calm Calm - N/A   Overcast
1:55 AM 46.4 °F 44.6 °F 93% 30.11 in 7.0 mi Calm Calm - N/A   Overcast
2:15 AM 46.4 °F 44.6 °F 93% 30.11 in 7.0 mi Calm Calm - N/A   Overcast
2:35 AM 46.4 °F 44.6 °F 93% 30.11 in 7.0 mi Calm Calm - N/A   Overcast
2:55 AM 46.4 °F 46.4 °F 100% 30.13 in 7.0 mi Calm Calm - N/A   Overcast
3:15 AM 46.4 °F 46.4 °F 100% 30.12 in 10.0 mi Calm Calm - N/A   Overcast
3:35 AM 46.4 °F 46.4 °F 100% 30.12 in 5.0 mi Calm Calm - N/A   Overcast
3:55 AM 46.4 °F 46.4 °F 100% 30.11 in 5.0 mi Calm Calm - N/A   Overcast
4:15 AM 46.4 °F 46.4 °F 100% 30.11 in 3.0 mi Calm Calm - N/A   Overcast
4:35 AM 46.4 °F 46.4 °F 100% 30.11 in 3.0 mi Calm Calm - N/A   Overcast
4:55 AM 46.4 °F 46.4 °F 100% 30.11 in 4.0 mi Calm Calm - N/A   Overcast
5:15 AM 46.4 °F 46.4 °F 100% 30.11 in 2.5 mi Calm Calm - N/A   Overcast
5:35 AM 46.4 °F 46.4 °F 100% 30.11 in 2.5 mi Calm Calm - N/A   Drizzle
5:55 AM 46.4 °F 46.4 °F 100% 30.11 in 3.0 mi Calm Calm - N/A   Light Drizzle
6:15 AM 46.4 °F 46.4 °F 100% 30.11 in 4.0 mi Calm Calm - N/A   Overcast
6:35 AM 46.4 °F 46.4 °F 100% 30.11 in 4.0 mi Calm Calm - N/A   Overcast
6:55 AM 46.4 °F 46.4 °F 100% 30.11 in 3.0 mi Calm Calm - N/A   Overcast
7:15 AM 46.4 °F 46.4 °F 100% 30.10 in 3.0 mi Calm Calm - N/A   Overcast
7:35 AM 46.4 °F 46.4 °F 100% 30.10 in 4.0 mi Calm Calm - N/A   Overcast
7:55 AM 46.4 °F 46.4 °F 100% 30.11 in 5.0 mi Calm Calm - N/A   Overcast
8:15 AM 46.4 °F 46.4 °F 100% 30.12 in 7.0 mi Calm Calm - N/A   Overcast
8:35 AM 46.4 °F 46.4 °F 100% 30.13 in 10.0 mi Calm Calm - N/A   Overcast
8:55 AM 48.2 °F 48.2 °F 100% 30.15 in 10.0 mi Calm Calm - N/A   Overcast
9:15 AM 48.2 °F 48.2 °F 100% 30.15 in 10.0 mi Calm Calm - N/A   Overcast
9:35 AM 50.0 °F 48.2 °F 94% 30.15 in 10.0 mi Calm Calm - N/A   Overcast
9:55 AM 50.0 °F 50.0 °F 100% 30.15 in 10.0 mi Calm Calm - N/A   Overcast
10:15 AM 50.0 °F 50.0 °F 100% 30.16 in 10.0 mi Calm Calm - N/A   Overcast
10:35 AM 50.0 °F 46.4 °F 87% 30.17 in 10.0 mi Calm Calm - N/A   Overcast
10:55 AM 50.0 °F 46.4 °F 87% 30.17 in 10.0 mi Calm Calm - N/A   Overcast
11:15 AM 50.0 °F 46.4 °F 87% 30.16 in 10.0 mi Calm Calm - N/A   Overcast
11:35 AM 50.0 °F 44.6 °F 82% 30.17 in 10.0 mi Calm Calm - N/A   Overcast
11:55 AM 50.0 °F 44.6 °F 82% 30.17 in 5.0 mi Calm Calm - N/A   Haze
12:15 PM 50.0 °F 46.4 °F 87% 30.18 in 2.5 mi Calm Calm - N/A Rain Rain
12:35 PM 48.2 °F 48.2 °F 100% 30.17 in 2.0 mi Calm Calm - N/A   Drizzle
12:55 PM 48.2 °F 48.2 °F 100% 30.17 in 1.8 mi Calm Calm - 0.01 in   Light Drizzle
1:15 PM 48.2 °F 48.2 °F 100% 30.16 in 2.5 mi Calm Calm - N/A   Overcast
1:55 PM 50.0 °F 50.0 °F 100% 30.14 in 7.0 mi Calm Calm - N/A   Overcast
2:15 PM 50.0 °F 50.0 °F 100% 30.12 in 10.0 mi Calm Calm - N/A   Light Drizzle
2:35 PM 50.0 °F 50.0 °F 100% 30.11 in 10.0 mi Calm Calm - N/A   Overcast
2:55 PM 50.0 °F 50.0 °F 100% 30.11 in 10.0 mi Calm Calm - N/A   Overcast
3:15 PM 50.0 °F 50.0 °F 100% 30.11 in 10.0 mi Calm Calm - N/A   Overcast
3:35 PM 50.0 °F 50.0 °F 100% 30.10 in 10.0 mi Calm Calm - N/A   Overcast
3:55 PM 51.8 °F 50.0 °F 94% 30.10 in 10.0 mi Calm Calm - N/A   Overcast
4:15 PM 51.8 °F 46.4 °F 82% 30.10 in 10.0 mi Calm Calm - N/A   Overcast
4:35 PM 51.8 °F 46.4 °F 82% 30.09 in 10.0 mi Calm Calm - N/A   Overcast
4:55 PM 51.8 °F 46.4 °F 82% 30.10 in 10.0 mi Calm Calm - N/A   Overcast
5:15 PM 51.8 °F 46.4 °F 82% 30.10 in 10.0 mi Calm Calm - N/A   Overcast
5:35 PM 51.8 °F 48.2 °F 88% 30.10 in 10.0 mi Calm Calm - N/A   Overcast
5:55 PM 51.8 °F 48.2 °F 88% 30.10 in 7.0 mi Calm Calm - N/A   Overcast
6:15 PM 51.8 °F 48.2 °F 88% 30.10 in 10.0 mi Calm Calm - N/A   Overcast
6:35 PM 51.8 °F 50.0 °F 94% 30.11 in 4.0 mi Calm Calm - N/A   Overcast
6:55 PM 50.0 °F 50.0 °F 100% 30.11 in 7.0 mi Calm Calm - N/A   Overcast
7:15 PM 50.0 °F 50.0 °F 100% 30.11 in 10.0 mi Calm Calm - N/A   Overcast
7:35 PM 50.0 °F 50.0 °F 100% 30.10 in 10.0 mi Calm Calm - N/A   Overcast
7:55 PM 50.0 °F 50.0 °F 100% 30.10 in 7.0 mi Calm Calm - N/A   Overcast
8:35 PM 50.0 °F 50.0 °F 100% 30.11 in 5.0 mi Calm Calm - N/A   Overcast
9:15 PM 50.0 °F 50.0 °F 100% 30.12 in 7.0 mi Calm Calm - N/A   Overcast
9:55 PM 50.0 °F 48.2 °F 94% 30.13 in 10.0 mi Calm Calm - N/A   Overcast
10:15 PM 50.0 °F 50.0 °F 100% 30.13 in 10.0 mi Calm Calm - N/A   Overcast
10:35 PM 50.0 °F 50.0 °F 100% 30.14 in 10.0 mi Calm Calm - N/A   Overcast
10:55 PM 48.2 °F 48.2 °F 100% 30.14 in 10.0 mi Calm Calm - N/A   Overcast
11:15 PM 48.2 °F 48.2 °F 100% 30.14 in 10.0 mi Calm Calm - N/A   Overcast
11:55 PM 48.2 °F 46.4 °F 93% 30.14 in 10.0 mi Calm Calm - N/A   Overcast